WB8ZTP Weather Reports


Display with metric or nautical units.
time (UTC)temp
F
wind
direction
speed
MPH
gust
MPH
rain 1hr
in
rain 24hr
in
rain mn
in
humidity
%
barometer
mb
20260905044502 71 190 0.0 0.0 0.00 0.00 0.00 90 1015.3
20260905043100 70 190 0.0 0.0 0.00 0.00 0.00 90 1015.5
20260905041600 70 190 0.0 0.0 0.00 0.00 0.00 90 1015.6
20260905040058 70 190 0.0 0.0 0.00 0.00 0.00 90 1015.6
20260905034556 70 190 0.0 0.0 0.00 0.00 0.00 90 1015.7
20260905033056 70 190 0.0 0.0 0.00 0.00 0.00 90 1015.5
20260905031604 70 190 0.0 0.0 0.00 0.00 0.00 90 1015.7
20260905030100 71 190 0.0 0.0 0.00 0.00 0.00 90 1015.7
20260905024601 71 190 0.0 0.0 0.00 0.00 0.00 90 1015.8
20260905023053 71 190 0.0 0.0 0.00 0.00 0.00 90 1015.8
20260905021553 71 190 0.0 0.0 0.00 0.00 0.00 91 1015.8
20260905020053 71 190 0.0 0.0 0.00 0.00 0.00 91 1015.6
20260905014557 71 190 0.0 0.0 0.00 0.00 0.00 91 1015.6
20260905013058 71 190 0.0 0.0 0.00 0.00 0.00 91 1015.6
20260905011551 72 190 0.0 0.0 0.00 0.00 0.00 91 1015.6
20260905010051 72 190 0.0 0.0 0.00 0.00 0.00 90 1015.6
20260905004606 72 190 0.0 0.0 0.00 0.00 0.00 90 1015.5
20260905003055 73 190 0.0 0.0 0.00 0.00 0.00 90 1015.0
20260905001550 74 190 0.0 0.0 0.00 0.00 0.00 90 1014.8
20260905000051 75 190 0.0 0.0 0.00 0.00 0.00 89 1014.9
20260904234548 76 190 0.0 2.0 0.00 0.00 0.00 88 1015.0
20260904233048 76 190 0.0 1.0 0.00 0.00 0.00 87 1015.1
20260904231547 77 190 0.0 1.0 0.00 0.00 0.00 87 1014.8
20260904224546 76 190 0.0 2.0 0.00 0.00 0.00 89 1015.1
20260904223046 76 190 0.0 0.0 0.00 0.00 0.00 89 1015.0
20260904221546 76 190 0.0 1.0 0.00 0.00 0.00 87 1015.0
20260904220046 76 190 0.0 1.0 0.00 0.00 0.00 86 1014.5
20260904214544 77 192 2.0 6.0 0.00 0.00 0.00 85 1014.0
20260904213044 77 190 3.0 6.0 0.00 0.00 0.00 83 1013.1
20260904211540 78 149 1.0 4.0 0.00 0.00 0.00 83 1013.5
20260904210037 79 186 2.0 5.0 0.00 0.00 0.00 81 1014.3
20260904204535 80 307 0.0 2.0 0.00 0.00 0.00 81 1014.9
20260904203033 81 13 0.0 2.0 0.00 0.00 0.00 82 1015.1
20260904201531 82 14 0.0 3.0 0.00 0.00 0.00 77 1015.4
20260904200030 81 13 0.0 3.0 0.00 0.00 0.00 77 1015.6
20260904194527 80 51 1.0 4.0 0.00 0.00 0.00 81 1016.1
20260904193035 78 32 2.0 10.0 0.00 0.00 0.00 81 1016.3
20260904191525 77 24 3.0 9.0 0.00 0.00 0.00 85 1016.5
20260904190036 76 349 4.0 8.0 0.00 0.00 0.00 84 1016.8
20260904184523 75 309 2.0 10.0 0.00 0.00 0.00 83 1017.1
20260904183022 76 41 4.0 9.0 0.00 0.00 0.00 87 1017.0
20260904181522 78 19 2.0 8.0 0.00 0.00 0.00 90 1017.3
20260904180021 78 346 2.0 5.0 0.00 0.00 0.00 90 1017.1
20260904174521 77 190 1.0 4.0 0.00 0.00 0.00 90 1016.8
20260904173022 77 159 0.0 3.0 0.00 0.00 0.00 90 1016.7
20260904171521 76 159 0.0 3.0 0.00 0.00 0.00 90 1017.0
20260904170019 77 159 0.0 0.0 0.00 0.00 0.00 90 1017.3
20260904164519 76 159 0.0 3.0 0.00 0.00 0.00 90 1017.1
20260904163021 76 158 1.0 5.0 0.00 0.00 0.00 90 1017.6
20260904161518 77 215 0.0 2.0 0.00 0.00 0.00 90 1017.8
20260904160018 77 215 0.0 0.0 0.00 0.00 0.00 90 1017.6
20260904154517 77 215 0.0 4.0 0.00 0.00 0.00 89 1018.0
20260904153015 78 337 0.0 2.0 0.00 0.00 0.00 88 1017.4
20260904151517 79 209 0.0 6.0 0.00 0.00 0.00 85 1017.7
20260904150023 79 39 0.0 3.0 0.00 0.00 0.00 87 1017.1
20260904144507 77 165 0.0 2.0 0.00 0.00 0.00 89 1017.0
20260904143004 76 165 0.0 1.0 0.00 0.00 0.00 90 1016.8
20260904141502 75 165 0.0 1.0 0.00 0.00 0.00 90 1016.8
20260904140108 75 165 0.0 0.0 0.00 0.00 0.00 91 1016.8
20260904134558 75 165 0.0 3.0 0.00 0.00 0.00 90 1016.8
20260904133054 73 164 0.0 3.0 0.00 0.00 0.00 90 1016.6
20260904131551 72 178 0.0 4.0 0.00 0.00 0.00 90 1016.8
20260904124556 71 169 0.0 1.0 0.00 0.00 0.00 90 1017.2
20260904123048 71 169 0.0 0.0 0.00 0.00 0.00 90 1017.2
20260904121547 70 169 0.0 0.0 0.00 0.00 0.00 90 1017.2
20260904120104 70 169 0.0 0.0 0.00 0.00 0.00 90 1017.1
20260904114544 69 169 0.0 0.0 0.00 0.00 0.00 90 1016.9
20260904113042 69 169 0.0 0.0 0.00 0.00 0.00 90 1016.4
20260904111542 69 169 0.0 0.0 0.00 0.00 0.00 90 1016.4
20260904110043 69 169 0.0 0.0 0.00 0.00 0.00 91 1016.4
20260904104541 69 169 0.0 0.0 0.00 0.00 0.00 90 1016.2
20260904103040 69 169 0.0 0.0 0.00 0.00 0.00 91 1016.2
20260904101542 69 169 0.0 0.0 0.00 0.00 0.00 91 1015.9
20260904100040 68 169 0.0 0.0 0.00 0.00 0.00 91 1015.9
20260904094539 69 169 0.0 0.0 0.00 0.00 0.00 91 1016.0
20260904093039 69 169 0.0 0.0 0.00 0.00 0.00 91 1015.6
20260904091537 69 169 0.0 0.0 0.00 0.00 0.00 91 1015.5
20260904090036 69 169 0.0 0.0 0.00 0.00 0.00 91 1015.4
20260904084535 69 169 0.0 0.0 0.00 0.00 0.00 91 1015.4
20260904083037 69 169 0.0 0.0 0.00 0.00 0.00 91 1015.4
20260904081542 70 169 0.0 0.0 0.00 0.00 0.00 91 1015.5
20260904080031 70 169 0.0 0.0 0.00 0.00 0.00 90 1015.4
20260904074528 70 169 0.0 0.0 0.00 0.00 0.00 90 1015.6
20260904073027 71 169 0.0 1.0 0.00 0.00 0.00 90 1015.7
20260904071526 71 169 0.0 1.0 0.00 0.00 0.00 90 1015.6
20260904070025 71 169 1.0 2.0 0.00 0.00 0.00 90 1015.7
20260904064524 71 169 1.0 4.0 0.00 0.00 0.00 90 1015.8
20260904063024 71 169 1.0 5.0 0.00 0.00 0.00 90 1015.8
20260904061537 71 157 2.0 4.0 0.00 0.00 0.00 90 1015.6
20260904060022 71 174 1.0 3.0 0.00 0.00 0.00 90 1016.0
20260904054523 71 158 1.0 3.0 0.00 0.00 0.00 90 1015.9
20260904053018 71 140 0.0 3.0 0.00 0.00 0.00 90 1016.2
20260904051516 71 140 0.0 3.0 0.00 0.00 0.00 89 1016.3
20260904050019 71 107 0.0 2.0 0.00 0.00 0.00 89 1016.5